Henderson, KY

6:35 PM CDT on July 19, 2019 (GMT -0500)
Henderson City-County

Weather History for KEHR - May, 2019

Change the Weather History Date:

Friday, May 24, 2019

  Actual Average Record
Temperature  
Mean Temperature 78 °F -  
Max Temperature 91 °F 79 °F 92 °F (1936)
Min Temperature 66 °F 58 °F 42 °F (1934)
Cooling Degree Days 14    
Growing Degree Days 28 (Base 50)    
Moisture  
Dew Point 67 °F    
Average Humidity 72    
Maximum Humidity 100    
Minimum Humidity 42    
Precipitation  
Precipitation 0.00 in - - ()
Sea Level Pressure  
Sea Level Pressure 30.08 in    
Wind  
Wind Speed 5 mph (SSW)    
Max Wind Speed 21 mph    
Max Gust Speed 25 mph    
Visibility 8 miles    
Events Fog    
Averages and records for this station are not official NWS values.
T = Trace of Precipitation, MM = Missing Value Source: NWS Daily Summary

Daily Weather History Graph

Daily Weather History Graph

Search for Another Location

Airport or City:

Astronomy

May. 24, 2019 Rise Set
Actual Time 5:34 AM CDT 8:01 PM CDT
Civil Twilight 5:04 AM CDT 8:31 PM CDT
Nautical Twilight 4:27 AM CDT 9:08 PM CDT
Astronomical Twilight 3:45 AM CDT 9:50 PM CDT
Moon 12:25 AM CDT (5/24) 10:34 AM CDT (5/24)
Length of Visible Light 15h 27m
Length of Day
14h 26m
Waning Gibbous, 68% of the Moon is Illuminated
May 24
Waning Gibbous
May 26
Last Quarter
Jun 3
New
Jun 10
First Quarter
Jun 17
Full

Hourly Weather History & Observations

Time (CDT) Temp. Heat Index Dew Point Humidity Pressure Visibility Wind Dir Wind Speed Gust Speed Precip Events Conditions
12:56 AM 73.0 °F - 69.1 °F 87% 30.07 in 10.0 mi SSW 4.6 mph - N/A   Clear
1:56 AM 73.0 °F - 69.1 °F 87% 30.07 in 10.0 mi South 3.5 mph - N/A   Clear
2:56 AM 71.1 °F - 69.1 °F 93% 30.07 in 10.0 mi South 4.6 mph - N/A   Clear
3:56 AM 71.1 °F - 69.1 °F 93% 30.07 in 10.0 mi Calm Calm - N/A   Clear
4:56 AM 70.0 °F - 68.0 °F 93% 30.08 in 7.0 mi Calm Calm - N/A   Clear
5:42 AM 68.0 °F - 68.0 °F 100% 30.10 in 1.0 mi Calm Calm - N/A   Clear
5:44 AM 68.0 °F - 66.2 °F 94% 30.10 in 0.5 mi Calm Calm - N/A Fog Fog
5:51 AM 66.2 °F - 66.2 °F 100% 30.11 in 0.2 mi Calm Calm - N/A Fog Fog
5:56 AM 66.9 °F - 66.9 °F 100% 30.10 in 0.2 mi Calm Calm - N/A Fog Fog
6:01 AM 68.0 °F - 66.2 °F 94% 30.11 in 0.8 mi Calm Calm - N/A   Clear
6:04 AM 68.0 °F - 66.2 °F 94% 30.11 in 2.0 mi Calm Calm - N/A   Clear
6:21 AM 68.0 °F - 68.0 °F 100% 30.12 in 3.0 mi Calm Calm - N/A   Clear
6:56 AM 72.0 °F - 70.0 °F 93% 30.12 in 10.0 mi South 3.5 mph - N/A   Clear
7:56 AM 77.0 °F - 69.1 °F 76% 30.12 in 10.0 mi SSW 10.4 mph - N/A   Clear
8:56 AM 81.0 °F 84.1 °F 69.1 °F 67% 30.13 in 10.0 mi SSW 10.4 mph - N/A   Clear
9:56 AM 84.0 °F 86.3 °F 66.0 °F 55% 30.12 in 10.0 mi WSW 12.7 mph - N/A   Clear
10:56 AM 87.1 °F 88.9 °F 64.9 °F 48% 30.12 in 10.0 mi WSW 13.8 mph - N/A   Clear
11:56 AM 88.0 °F 88.7 °F 63.0 °F 43% 30.11 in 10.0 mi SW 20.7 mph 25.3 mph N/A   Clear
12:56 PM 90.0 °F 91.3 °F 64.0 °F 42% 30.11 in 10.0 mi WSW 15.0 mph 20.7 mph N/A   Clear
1:56 PM 90.0 °F 91.7 °F 64.9 °F 43% 30.09 in 10.0 mi SW 15.0 mph 21.9 mph N/A   Clear
2:56 PM 91.0 °F 93.8 °F 66.0 °F 44% 30.09 in 10.0 mi WSW 12.7 mph - N/A   Partly Cloudy
3:56 PM 91.0 °F 93.0 °F 64.9 °F 42% 30.07 in 10.0 mi WSW 13.8 mph - N/A   Partly Cloudy
4:56 PM 90.0 °F 91.7 °F 64.9 °F 43% 30.05 in 10.0 mi SW 11.5 mph - N/A   Clear
5:56 PM 90.0 °F 91.7 °F 64.9 °F 43% 30.04 in 10.0 mi SSW 10.4 mph - N/A   Clear
6:56 PM 88.0 °F 89.3 °F 64.0 °F 45% 30.02 in 10.0 mi SSW 8.1 mph - N/A   Clear
7:56 PM 82.9 °F 84.6 °F 64.9 °F 54% 30.01 in 10.0 mi South 8.1 mph - N/A   Clear
9:56 PM 78.1 °F - 64.0 °F 62% 30.01 in 10.0 mi South 4.6 mph - N/A   Clear
10:56 PM 75.9 °F - 64.9 °F 69% 30.04 in 10.0 mi SSW 5.8 mph - N/A   Clear
11:56 PM 75.9 °F - 66.9 °F 74% 30.05 in 10.0 mi SSW 9.2 mph - N/A   Clear